WX4SNO Weather Reports


time (UTC)temp
C
wind
direction
speed
KPH
gust
KPH
rain 1hr
cm
rain 24hr
cm
rain mn
cm
humidity
%
barometer
mb
20260504100503 7 290 0.0 0.0 0.00 0.00 0.00 64 1019.2
20260504082002 8 109 0.0 0.0 0.00 0.00 0.00 57 1019.2
20260504081503 8 109 0.0 0.0 0.00 0.00 0.00 58 1019.2
20260504080524 7 201 0.0 0.0 0.00 0.00 0.00 57 1019.4
20260504050503 9 37 0.0 0.0 0.00 0.00 0.00 51 1020.2
20260504050003 9 37 0.0 0.0 0.00 0.00 0.00 51 1020.1
20260504045503 9 37 0.0 0.0 0.00 0.00 0.00 51 1020.0
20260504045003 9 37 0.0 0.0 0.00 0.00 0.00 51 1020.0
20260504044503 9 207 0.0 0.0 0.00 0.00 0.00 51 1020.0
20260504044003 9 207 0.0 0.0 0.00 0.00 0.00 51 1020.0
20260504043503 9 175 0.0 1.6 0.00 0.00 0.00 52 1019.9
20260504043003 9 175 0.0 1.6 0.00 0.00 0.00 52 1020.0
20260504042503 9 332 0.0 3.2 0.00 0.00 0.00 51 1019.9
20260504042003 9 333 0.0 3.2 0.00 0.00 0.00 50 1019.9
20260504041524 9 69 0.0 1.6 0.00 0.00 0.00 50 1019.9
20260504041003 8 355 0.0 0.0 0.00 0.00 0.00 53 1019.8
20260504040524 8 56 0.0 0.0 0.00 0.00 0.00 52 1019.8
20260504040003 8 222 0.0 0.0 0.00 0.00 0.00 52 1020.0
20260504035503 8 261 0.0 0.0 0.00 0.00 0.00 52 1020.0
20260504035003 8 328 0.0 0.0 0.00 0.00 0.00 50 1020.0
20260504034503 8 309 0.0 0.0 0.00 0.00 0.00 51 1020.1
20260504034003 8 309 0.0 0.0 0.00 0.00 0.00 51 1020.2
20260504033504 8 309 0.0 0.0 0.00 0.00 0.00 50 1020.3
20260504033023 8 309 0.0 0.0 0.00 0.00 0.00 51 1020.2
20260504032503 8 309 0.0 0.0 0.00 0.00 0.00 50 1020.2
20260504032024 8 306 0.0 0.0 0.00 0.00 0.00 50 1020.1
20260504031503 8 302 0.0 0.0 0.00 0.00 0.00 50 1020.1
20260504031024 8 302 0.0 0.0 0.00 0.00 0.00 50 1020.1
20260504030524 8 302 0.0 0.0 0.00 0.00 0.00 50 1020.3
20260504030003 8 300 0.0 0.0 0.00 0.00 0.00 49 1020.3
20260504025524 8 178 0.0 0.0 0.00 0.00 0.00 50 1020.1
20260504025003 8 142 0.0 0.0 0.00 0.00 0.00 50 1020.2
20260504024503 7 142 0.0 0.0 0.00 0.00 0.00 51 1020.2
20260504024003 7 142 0.0 0.0 0.00 0.00 0.00 51 1020.3
20260504023503 7 142 0.0 0.0 0.00 0.00 0.00 52 1020.3
20260504023002 7 142 0.0 0.0 0.00 0.00 0.00 52 1020.3
20260504022503 7 142 0.0 3.2 0.00 0.00 0.00 53 1020.2
20260504022003 7 161 0.0 3.2 0.00 0.00 0.00 54 1020.3
20260504021503 7 161 0.0 0.0 0.00 0.00 0.00 55 1020.2
20260504021003 7 76 0.0 0.0 0.00 0.00 0.00 54 1020.1
20260504020524 8 76 0.0 0.0 0.00 0.00 0.00 53 1020.0
20260504020002 8 76 0.0 1.6 0.00 0.00 0.00 52 1019.9
20260504015002 7 76 0.0 1.6 0.00 0.00 0.00 51 1019.7
20260504014503 8 130 0.0 0.0 0.00 0.00 0.00 51 1019.7
20260504014003 8 128 0.0 0.0 0.00 0.00 0.00 52 1019.8
20260504013524 8 128 0.0 0.0 0.00 0.00 0.00 51 1019.7
20260504013024 8 150 0.0 0.0 0.00 0.00 0.00 50 1019.7
20260504012503 8 150 0.0 0.0 0.00 0.00 0.00 49 1019.7
20260504012002 8 150 0.0 0.0 0.00 0.00 0.00 48 1019.6
20260504011503 9 85 0.0 0.0 0.00 0.00 0.00 46 1019.5
20260504011024 9 84 0.0 0.0 0.00 0.00 0.00 46 1019.5
20260504010502 9 84 0.0 0.0 0.00 0.00 0.00 45 1019.4
20260504005503 9 75 0.0 0.0 0.00 0.00 0.00 46 1019.3
20260504005004 9 75 0.0 0.0 0.00 0.00 0.00 46 1019.3
20260504004502 9 75 0.0 0.0 0.00 0.00 0.00 45 1019.2
20260504004003 9 75 0.0 0.0 0.00 0.00 0.00 46 1019.2
20260504003503 9 75 0.0 0.0 0.00 0.00 0.00 46 1019.2
20260504003002 10 75 0.0 0.0 0.00 0.00 0.00 45 1019.2
20260504002503 10 75 0.0 0.0 0.00 0.00 0.00 44 1019.1
20260504002003 10 75 0.0 0.0 0.00 0.00 0.00 44 1018.9
20260504001502 10 64 0.0 0.0 0.00 0.00 0.00 45 1019.0
20260504001003 10 61 0.0 0.0 0.00 0.00 0.00 44 1019.2
20260504000524 10 63 0.0 0.0 0.00 0.00 0.00 46 1019.2
20260504000002 10 63 0.0 0.0 0.00 0.00 0.00 44 1019.3
20260503235503 10 63 0.0 0.0 0.00 0.00 0.00 45 1019.2
20260503235003 10 63 0.0 0.0 0.00 0.00 0.00 45 1019.2
20260503234548 11 62 0.0 0.0 0.00 0.00 0.00 45 1019.2
20260503234003 11 62 0.0 0.0 0.00 0.00 0.00 45 1019.1
20260503233524 11 63 0.0 0.0 0.00 0.00 0.00 43 1019.1
20260503233002 11 200 0.0 0.0 0.00 0.00 0.00 41 1019.1
20260503232524 11 5 0.0 0.0 0.00 0.00 0.00 40 1019.1
20260503232003 11 355 0.0 0.0 0.00 0.00 0.00 39 1019.0
20260503231503 11 355 0.0 0.0 0.00 0.00 0.00 41 1019.0
20260503231003 12 355 0.0 0.0 0.00 0.00 0.00 42 1019.0
20260503230503 12 48 0.0 6.4 0.00 0.00 0.00 41 1019.1
20260503230003 12 28 0.0 6.4 0.00 0.00 0.00 38 1019.0
20260503225524 12 61 0.0 6.4 0.00 0.00 0.00 37 1018.9
20260503225003 12 181 0.0 16.1 0.00 0.00 0.00 36 1019.0
20260503224502 12 315 1.6 16.1 0.00 0.00 0.00 35 1019.0
20260503224003 12 44 0.0 3.2 0.00 0.00 0.00 38 1019.1
20260503223502 12 42 0.0 0.0 0.00 0.00 0.00 35 1019.2
20260503223003 12 347 0.0 0.0 0.00 0.00 0.00 34 1019.1
20260503222503 12 157 0.0 0.0 0.00 0.00 0.00 34 1019.0
20260503222002 12 80 0.0 0.0 0.00 0.00 0.00 33 1019.2
20260503221524 12 21 0.0 0.0 0.00 0.00 0.00 34 1019.2
20260503221003 12 28 0.0 0.0 0.00 0.00 0.00 36 1019.3
20260503220503 12 56 0.0 0.0 0.00 0.00 0.00 35 1019.2
20260503220003 12 91 0.0 0.0 0.00 0.00 0.00 35 1019.3
20260503215503 13 33 0.0 0.0 0.00 0.00 0.00 33 1019.3
20260503215003 13 295 0.0 0.0 0.00 0.00 0.00 31 1019.3
20260503214503 13 295 0.0 0.0 0.00 0.00 0.00 31 1019.3
20260503214003 13 274 0.0 0.0 0.00 0.00 0.00 31 1019.4
20260503213503 13 139 0.0 11.3 0.00 0.00 0.00 30 1019.4
20260503213003 13 196 0.0 11.3 0.00 0.00 0.00 31 1019.5
20260503212524 13 194 0.0 0.0 0.00 0.00 0.00 32 1019.4
20260503212003 13 32 0.0 1.6 0.00 0.00 0.00 35 1019.3
20260503211502 13 34 0.0 1.6 0.00 0.00 0.00 33 1019.4
20260503211003 13 344 0.0 1.6 0.00 0.00 0.00 33 1019.4
20260503210503 13 42 0.0 1.6 0.00 0.00 0.00 32 1019.4
20260503210003 13 5 0.0 0.0 0.00 0.00 0.00 33 1019.4
20260503205503 13 9 0.0 0.0 0.00 0.00 0.00 32 1019.4
20260503205003 13 24 0.0 1.6 0.00 0.00 0.00 33 1019.4
20260503204502 14 51 0.0 1.6 0.00 0.00 0.00 32 1019.4
20260503204003 14 16 0.0 4.8 0.00 0.00 0.00 35 1019.6
20260503203503 14 38 0.0 4.8 0.00 0.00 0.00 35 1019.7
20260503203003 13 360 0.0 1.6 0.00 0.00 0.00 32 1019.8
20260503202502 13 90 0.0 1.6 0.00 0.00 0.00 37 1019.9
20260503202003 14 41 0.0 1.6 0.00 0.00 0.00 33 1019.9
20260503201524 14 355 0.0 1.6 0.00 0.00 0.00 30 1019.9
20260503201002 14 326 0.0 1.6 0.00 0.00 0.00 34 1020.0
20260503200503 14 19 0.0 0.0 0.00 0.00 0.00 32 1020.1
20260503200003 14 5 0.0 0.0 0.00 0.00 0.00 33 1020.0
20260503195503 13 32 0.0 6.4 0.00 0.00 0.00 32 1019.9
20260503195003 13 78 0.0 6.4 0.00 0.00 0.00 31 1020.2
20260503194503 13 48 0.0 3.2 0.00 0.00 0.00 33 1020.3
20260503194002 13 32 0.0 1.6 0.00 0.00 0.00 33 1020.4
20260503193503 14 97 0.0 3.2 0.00 0.00 0.00 33 1020.6
20260503193024 13 248 0.0 3.2 0.00 0.00 0.00 34 1020.6
20260503192545 13 6 0.0 1.6 0.00 0.00 0.00 33 1020.6
20260503192003 13 330 0.0 1.6 0.00 0.00 0.00 34 1020.7
20260503191503 13 31 0.0 8.0 0.00 0.00 0.00 34 1020.6
20260503191024 13 42 0.0 8.0 0.00 0.00 0.00 33 1020.7
20260503190503 13 31 0.0 4.8 0.00 0.00 0.00 36 1020.9
20260503190003 13 82 0.0 4.8 0.00 0.00 0.00 37 1020.9
20260503185503 13 344 0.0 4.8 0.00 0.00 0.00 36 1020.9
20260503185003 13 359 0.0 4.8 0.00 0.00 0.00 38 1020.9
20260503184503 13 34 0.0 4.8 0.00 0.00 0.00 38 1021.1
20260503184003 13 47 0.0 6.4 0.00 0.00 0.00 35 1021.3
20260503183504 13 304 0.0 22.5 0.00 0.00 0.00 36 1021.2
20260503183003 13 350 0.0 22.5 0.00 0.00 0.00 36 1021.3
20260503182503 13 50 0.0 4.8 0.00 0.00 0.00 36 1021.4
20260503182003 12 352 0.0 3.2 0.00 0.00 0.00 38 1021.5
20260503181504 12 47 0.0 1.6 0.00 0.00 0.00 37 1021.8
20260503181003 13 326 0.0 3.2 0.00 0.00 0.00 38 1021.8
20260503180502 12 41 0.0 3.2 0.00 0.00 0.00 37 1021.8
20260503180003 12 331 0.0 1.6 0.00 0.00 0.00 41 1021.9
20260503175524 12 65 0.0 11.3 0.00 0.00 0.00 42 1022.0
20260503175003 12 294 0.0 11.3 0.00 0.00 0.00 38 1022.0
20260503174502 12 43 0.0 3.2 0.00 0.00 0.00 42 1021.9
20260503174003 11 51 0.0 1.6 0.00 0.00 0.00 42 1021.9
20260503173503 11 222 0.0 3.2 0.00 0.00 0.00 41 1022.0
20260503173003 11 330 0.0 3.2 0.00 0.00 0.00 36 1022.1
20260503172502 11 339 0.0 0.0 0.00 0.00 0.00 45 1022.1
20260503172024 11 302 0.0 1.6 0.00 0.00 0.00 38 1022.2
20260503171524 11 12 0.0 1.6 0.00 0.00 0.00 42 1022.3
20260503171003 11 323 0.0 3.2 0.00 0.00 0.00 43 1022.5
20260503170503 11 5 0.0 3.2 0.00 0.00 0.00 40 1022.5
20260503150503 8 303 0.0 8.0 0.00 0.00 0.00 47 1023.2
20260503131024 6 29 0.0 0.0 0.00 0.00 0.00 58 1023.1
20260503130503 6 334 0.0 0.0 0.00 0.00 0.00 61 1023.1
20260503110524 1 67 0.0 0.0 0.00 0.00 0.00 77 1021.6